Weather History for Fairfield, IA

Change the Weather History Date:

Tuesday, March 11, 2014

  Actual Average Record
Temperature  
Mean Temperature 42 °F -  
Max Temperature 51 °F 47 °F 78 °F (1972)
Min Temperature 33 °F 29 °F 8 °F (1998)
Degree Days  
Heating Degree Days 23    
Moisture  
Dew Point 36 °F    
Average Humidity 81    
Maximum Humidity 93    
Minimum Humidity 58    
Precipitation  
Precipitation 0.05 in - - ()
Sea Level Pressure  
Sea Level Pressure 29.67 in    
Wind  
Wind Speed 11 mph (NE)    
Max Wind Speed 28 mph    
Max Gust Speed 37 mph    
Visibility 9 miles    
Events Rain , Snow    
Averages and records for this station are not official NWS values.
T = Trace of Precipitation, MM = Missing Value Source: NWS Daily Summary

Daily Weather History Graph

Daily Weather History Graph

Search for Another Location

Airport:

Trip Planner

Search our weather history database for the weather conditions in past years. The results will help you decide how hot, cold, wet, or windy it might be!

Date:

Astronomy

Mar. 11, 2014 Rise Set
Actual Time 7:26 AM CDT 7:10 PM CDT
Civil Twilight 6:58 AM CDT 7:37 PM CDT
Nautical Twilight 6:26 AM CDT 8:09 PM CDT
Astronomical Twilight 5:54 AM CDT 8:41 PM CDT
Moon 2:45 PM CDT (3/11) 4:21 AM CDT (3/11)
Length of Visible Light 12h 38m
Length of Day
11h 44m
Waxing Gibbous, 78% of the Moon is Illuminated
Mar 11
Waxing Gibbous
Mar 16
Full
Mar 23
Last Quarter
Mar 30
New
Apr 7
First Quarter

Hourly Weather History & Observations

Time (CDT) Temp. Windchill Dew Point Humidity Pressure Visibility Wind Dir Wind Speed Gust Speed Precip Events Conditions
12:15 AM 41.0 °F - 37.4 °F 87% 29.69 in 10.0 mi Calm Calm - N/A   Partly Cloudy
12:35 AM 39.2 °F 34.2 °F 35.6 °F 87% 29.69 in 10.0 mi North 6.9 mph - N/A   Clear
12:50 AM 39.2 °F 33.0 °F 35.6 °F 87% 29.68 in 10.0 mi North 9.2 mph - N/A   Clear
1:15 AM 37.4 °F 31.4 °F 33.8 °F 87% 29.68 in 10.0 mi NNE 8.1 mph - N/A   Clear
1:35 AM 37.4 °F 30.8 °F 33.8 °F 87% 29.68 in 10.0 mi NNE 9.2 mph - N/A   Clear
1:55 AM 37.4 °F 31.4 °F 35.6 °F 93% 29.67 in 10.0 mi NE 8.1 mph - N/A   Clear
2:15 AM 37.4 °F 32.8 °F 35.6 °F 93% 29.67 in 10.0 mi ENE 5.8 mph - N/A   Clear
2:35 AM 39.2 °F 33.6 °F 35.6 °F 87% 29.66 in 10.0 mi NE 8.1 mph - N/A   Clear
2:55 AM 37.4 °F 32.8 °F 35.6 °F 93% 29.66 in 10.0 mi ENE 5.8 mph - N/A   Clear
3:15 AM 37.4 °F 32.8 °F 35.6 °F 93% 29.65 in 10.0 mi East 5.8 mph - N/A   Partly Cloudy
3:35 AM 37.4 °F 32.1 °F 33.8 °F 87% 29.64 in 10.0 mi ENE 6.9 mph - N/A   Mostly Cloudy
3:55 AM 37.4 °F 30.8 °F 35.6 °F 93% 29.63 in 10.0 mi East 9.2 mph - N/A   Mostly Cloudy
4:15 AM 37.4 °F 32.8 °F 35.6 °F 93% 29.62 in 10.0 mi East 5.8 mph - N/A   Scattered Clouds
4:35 AM 37.4 °F 32.8 °F 35.6 °F 93% 29.62 in 10.0 mi ESE 5.8 mph - N/A   Mostly Cloudy
4:55 AM 37.4 °F 33.8 °F 35.6 °F 93% 29.63 in 10.0 mi ESE 4.6 mph - N/A   Overcast
5:15 AM 37.4 °F 31.4 °F 33.8 °F 87% 29.63 in 10.0 mi East 8.1 mph - N/A   Mostly Cloudy
5:30 AM 37.4 °F 32.1 °F 35.6 °F 93% 29.63 in 10.0 mi ENE 6.9 mph - N/A   Overcast
5:55 AM 39.2 °F 32.0 °F 37.4 °F 93% 29.62 in 10.0 mi ENE 11.5 mph - N/A   Mostly Cloudy
6:15 AM 39.2 °F 32.5 °F 35.6 °F 87% 29.61 in 10.0 mi East 10.4 mph - N/A   Mostly Cloudy
6:35 AM 39.2 °F 34.2 °F 35.6 °F 87% 29.61 in 10.0 mi ENE 6.9 mph - N/A   Mostly Cloudy
6:55 AM 39.2 °F 32.5 °F 35.6 °F 87% 29.62 in 10.0 mi ENE 10.4 mph - N/A   Overcast
7:15 AM 39.2 °F 33.6 °F 35.6 °F 87% 29.61 in 10.0 mi East 8.1 mph - N/A   Overcast
7:35 AM 39.2 °F 33.6 °F 35.6 °F 87% 29.61 in 7.0 mi ENE 8.1 mph - N/A   Overcast
7:55 AM 39.2 °F 33.0 °F 35.6 °F 87% 29.62 in 7.0 mi NE 9.2 mph - N/A   Overcast
8:15 AM 39.2 °F 33.0 °F 37.4 °F 93% 29.61 in 8.0 mi East 9.2 mph - N/A   Mostly Cloudy
8:35 AM 39.2 °F 32.5 °F 37.4 °F 93% 29.60 in 8.0 mi East 10.4 mph - N/A   Scattered Clouds
8:55 AM 41.0 °F 35.8 °F 37.4 °F 87% 29.60 in 8.0 mi ENE 8.1 mph - N/A   Partly Cloudy
9:15 AM 41.0 °F 34.7 °F 37.4 °F 87% 29.59 in 8.0 mi East 10.4 mph - N/A   Clear
9:35 AM 41.0 °F 35.2 °F 37.4 °F 87% 29.60 in 9.0 mi ENE 9.2 mph - N/A   Clear
9:55 AM 42.8 °F 37.5 °F 37.4 °F 81% 29.60 in 9.0 mi East 9.2 mph - N/A   Clear
10:15 AM 42.8 °F 38.0 °F 37.4 °F 81% 29.60 in 9.0 mi East 8.1 mph - N/A   Clear
10:35 AM 42.8 °F 38.0 °F 39.2 °F 87% 29.61 in 10.0 mi East 8.1 mph - N/A   Clear
10:55 AM 44.6 °F 39.2 °F 39.2 °F 81% 29.60 in 10.0 mi ENE 10.4 mph - N/A   Clear
11:15 AM 44.6 °F 40.7 °F 39.2 °F 81% 29.61 in 10.0 mi ENE 6.9 mph 12.7 mph N/A   Clear
11:35 AM 46.4 °F 41.9 °F 39.2 °F 76% 29.61 in 10.0 mi NE 9.2 mph - N/A   Clear
11:55 AM 48.2 °F - 39.2 °F 71% 29.61 in 10.0 mi NE 11.5 mph - N/A   Clear
12:15 PM 50.0 °F - 39.2 °F 66% 29.60 in 10.0 mi NE 11.5 mph - N/A   Clear
12:35 PM 50.0 °F - 39.2 °F 66% 29.60 in 10.0 mi ENE 11.5 mph - N/A   Clear
12:55 PM 50.0 °F - 41.0 °F 71% 29.60 in 10.0 mi NE 15.0 mph - N/A   Clear
1:15 PM 51.8 °F - 41.0 °F 67% 29.60 in 10.0 mi NE 15.0 mph 20.7 mph N/A   Clear
1:35 PM 50.0 °F - 41.0 °F 71% 29.61 in 10.0 mi NNE 16.1 mph - N/A   Clear
1:55 PM 50.0 °F - 41.0 °F 71% 29.62 in 10.0 mi NNE 17.3 mph - N/A   Clear
2:15 PM 50.0 °F - 39.2 °F 66% 29.61 in 10.0 mi NNE 19.6 mph 26.5 mph N/A   Clear
2:35 PM 50.0 °F - 39.2 °F 66% 29.61 in 10.0 mi NNE 21.9 mph 29.9 mph N/A   Clear
2:55 PM 48.2 °F - 37.4 °F 66% 29.61 in 10.0 mi NNE 23.0 mph 31.1 mph N/A   Clear
3:15 PM 50.0 °F - 35.6 °F 58% 29.63 in 10.0 mi NE 26.5 mph 33.4 mph N/A   Clear
3:35 PM 48.2 °F - 35.6 °F 62% 29.63 in 10.0 mi NE 20.7 mph 27.6 mph N/A   Clear
3:55 PM 48.2 °F - 37.4 °F 66% 29.61 in 10.0 mi NE 21.9 mph 32.2 mph N/A   Clear
4:15 PM 48.2 °F - 35.6 °F 62% 29.61 in 10.0 mi NE 27.6 mph - N/A   Clear
4:35 PM 48.2 °F - 35.6 °F 62% 29.64 in 10.0 mi NE 25.3 mph 34.5 mph N/A   Clear
4:55 PM 46.4 °F 38.3 °F 35.6 °F 66% 29.69 in 10.0 mi NNE 23.0 mph - N/A   Mostly Cloudy
5:15 PM 46.4 °F 38.5 °F 35.6 °F 66% 29.69 in 10.0 mi NNE 21.9 mph 32.2 mph N/A   Overcast
5:35 PM 44.6 °F 36.9 °F 35.6 °F 71% 29.69 in 10.0 mi NNE 18.4 mph 29.9 mph N/A   Overcast
5:55 PM 44.6 °F 35.1 °F 35.6 °F 71% 29.70 in 10.0 mi NNE 27.6 mph 34.5 mph N/A   Overcast
6:15 PM 42.8 °F 32.9 °F 35.6 °F 76% 29.72 in 10.0 mi NNE 26.5 mph 36.8 mph N/A   Overcast
6:35 PM 42.8 °F 34.0 °F 35.6 °F 76% 29.74 in 10.0 mi NNE 20.7 mph 34.5 mph N/A   Overcast
6:55 PM 42.8 °F 33.3 °F 33.8 °F 70% 29.76 in 10.0 mi NNE 24.2 mph 36.8 mph N/A   Overcast
7:15 PM 41.0 °F 31.1 °F 35.6 °F 81% 29.76 in 10.0 mi NNE 23.0 mph 28.8 mph N/A   Overcast
7:35 PM 41.0 °F 31.1 °F 33.8 °F 76% 29.77 in 10.0 mi NNE 23.0 mph 29.9 mph N/A   Overcast
7:55 PM 39.2 °F 28.7 °F 33.8 °F 81% 29.75 in 10.0 mi NNE 23.0 mph 29.9 mph N/A   Overcast
8:15 PM 39.2 °F 29.0 °F 33.8 °F 81% 29.77 in - NNE 21.9 mph 27.6 mph N/A   Overcast
8:35 PM 39.2 °F 28.7 °F 33.8 °F 81% 29.77 in 10.0 mi NNE 23.0 mph 31.1 mph N/A   Overcast
8:55 PM 39.2 °F 28.5 °F 33.8 °F 81% 29.76 in 10.0 mi NNE 24.2 mph 29.9 mph N/A   Overcast
9:15 PM 39.2 °F 28.3 °F 33.8 °F 81% 29.75 in 10.0 mi NNE 25.3 mph 31.1 mph N/A   Overcast
9:35 PM 39.2 °F 28.5 °F 33.8 °F 81% 29.75 in 10.0 mi North 24.2 mph 32.2 mph N/A   Overcast
9:55 PM 37.4 °F 26.6 °F 33.8 °F 87% 29.74 in 10.0 mi NNE 21.9 mph 31.1 mph N/A   Overcast
10:15 PM 37.4 °F 26.9 °F 33.8 °F 87% 29.80 in 10.0 mi North 20.7 mph 28.8 mph N/A   Overcast
10:35 PM 37.4 °F 27.8 °F 33.8 °F 87% 29.84 in 10.0 mi NNW 17.3 mph - N/A   Overcast
10:55 PM 37.4 °F 27.8 °F 32.0 °F 81% 29.87 in 10.0 mi NNW 17.3 mph - N/A   Overcast
11:15 PM 35.6 °F 24.5 °F 30.2 °F 81% 29.87 in 3.0 mi NNW 20.7 mph 29.9 mph N/A Rain Rain
11:35 PM 33.8 °F 22.5 °F 32.0 °F 93% 29.87 in 0.8 mi North 19.6 mph 29.9 mph N/A Snow Light Snow
11:55 PM 33.8 °F 22.5 °F 32.0 °F 93% 29.86 in 1.0 mi North 19.6 mph 25.3 mph 0.05 in   Unknown